• In Germany
  • List of Countries
  • For 7 days
  • Water Temperature
  • Satellite Maps
  • Weather Map
  • Weather Widgets
  • user-avatar
    Login

    Hourly Weather Madingou

    Today, 25 November, Saturday

    Time Temperature Precipitation Wind Pressure Humidity
    00:00 +26°C° 0.7 mm 1 mps 745 mmHg 95%
    01:00 +25°C° 0.7 mm 1 mps 745 mmHg 96%
    02:00 +25°C° 0.7 mm 1 mps 745 mmHg 96%
    03:00 +25°C° 0.7 mm 1 mps 745 mmHg 97%
    04:00 +25°C° 0.7 mm 1 mps 745 mmHg 97%
    05:00 +25°C° 0.8 mm 1 mps 745 mmHg 97%
    06:00 +25°C° 0.8 mm 1 mps 745 mmHg 97%
    07:00 +23°C° 0.8 mm 0 mps 745 mmHg 96%
    08:00 +26°C° 0.6 mm 1 mps 746 mmHg 94%
    09:00 +27°C° 0.6 mm 1 mps 746 mmHg 91%
    10:00 +27°C° 0.6 mm 1 mps 746 mmHg 88%
    11:00 +28°C° 0.6 mm 1 mps 746 mmHg 84%
    12:00 +29°C° 0.6 mm 1 mps 745 mmHg 81%
    13:00 +30°C° 0.6 mm 2 mps 744 mmHg 78%
    14:00 +30°C° 1.4 mm 2 mps 744 mmHg 79%
    15:00 +30°C° 1.4 mm 2 mps 743 mmHg 80%
    16:00 +30°C° 1.4 mm 2 mps 743 mmHg 81%
    17:00 +28°C° 1.3 mm 1 mps 743 mmHg 85%
    18:00 +27°C° 1.3 mm 1 mps 744 mmHg 89%
    19:00 +26°C° 1.3 mm 1 mps 744 mmHg 93%
    20:00 +26°C° 1.4 mm 1 mps 745 mmHg 93%
    21:00 +26°C° 1.4 mm 1 mps 745 mmHg 93%
    22:00 +25°C° 1.4 mm 1 mps 746 mmHg 93%
    23:00 +25°C° 0.2 mm 1 mps 746 mmHg 93%

    Tomorrow, 26 November, Sunday

    Time Temperature Precipitation Wind Pressure Humidity
    00:00 +23°C° 0.2 mm 0 mps 746 mmHg 94%
    01:00 +23°C° 0.2 mm 0 mps 745 mmHg 94%
    02:00 +23°C° 0.3 mm 0 mps 745 mmHg 94%
    03:00 +23°C° 0.3 mm 0 mps 745 mmHg 95%
    04:00 +23°C° 0.3 mm 0 mps 745 mmHg 95%
    05:00 +23°C° 0.5 mm 0 mps 745 mmHg 94%
    06:00 +23°C° 0.5 mm 0 mps 745 mmHg 94%
    07:00 +23°C° 0.5 mm 0 mps 746 mmHg 94%
    08:00 +24°C° 0.7 mm 0 mps 746 mmHg 92%
    09:00 +24°C° 0.7 mm 0 mps 747 mmHg 91%
    10:00 +25°C° 0.7 mm 0 mps 747 mmHg 89%
    11:00 +25°C° 0.8 mm 0 mps 746 mmHg 89%
    12:00 +27°C° 0.8 mm 1 mps 746 mmHg 89%
    13:00 +27°C° 0.8 mm 1 mps 745 mmHg 89%
    14:00 +27°C° 0.5 mm 1 mps 745 mmHg 89%
    15:00 +27°C° 0.5 mm 1 mps 745 mmHg 88%
    16:00 +27°C° 0.5 mm 1 mps 744 mmHg 88%
    17:00 +27°C° 0.2 mm 1 mps 745 mmHg 90%
    18:00 +26°C° 0.2 mm 1 mps 745 mmHg 92%
    19:00 +25°C° 0.2 mm 1 mps 746 mmHg 94%
    20:00 +25°C° 0.1 mm 1 mps 746 mmHg 94%
    21:00 +25°C° 0.1 mm 1 mps 747 mmHg 94%
    22:00 +25°C° 0.1 mm 1 mps 747 mmHg 94%
    23:00 +25°C° 0.3 mm 1 mps 747 mmHg 95%

    Day after tomorrow, 27 November, Monday

    Time Temperature Precipitation Wind Pressure Humidity
    00:00 +24°C° 0.3 mm 1 mps 747 mmHg 95%
    01:00 +24°C° 0.3 mm 1 mps 746 mmHg 96%
    02:00 +24°C° 0.2 mm 1 mps 746 mmHg 96%
    03:00 +24°C° 0.2 mm 1 mps 745 mmHg 96%
    04:00 +22°C° 0.2 mm 0 mps 745 mmHg 97%
    05:00 +22°C° 0 mm 0 mps 745 mmHg 96%
    06:00 +22°C° 0 mm 0 mps 746 mmHg 95%
    07:00 +23°C° 0 mm 0 mps 746 mmHg 94%
    08:00 +24°C° 0 mm 0 mps 747 mmHg 88%
    09:00 +27°C° 0 mm 1 mps 747 mmHg 82%
    10:00 +29°C° 0 mm 1 mps 747 mmHg 76%
    11:00 +30°C° 0 mm 1 mps 747 mmHg 71%
    12:00 +31°C° 0 mm 1 mps 746 mmHg 67%
    13:00 +32°C° 0 mm 1 mps 745 mmHg 62%
    14:00 +31°C° 0 mm 1 mps 744 mmHg 64%
    15:00 +31°C° 0 mm 1 mps 744 mmHg 66%
    16:00 +31°C° 0 mm 1 mps 743 mmHg 68%
    17:00 +30°C° 0 mm 1 mps 744 mmHg 73%
    18:00 +28°C° 0 mm 1 mps 744 mmHg 78%
    19:00 +27°C° 0 mm 1 mps 745 mmHg 83%
    20:00 +26°C° 0.1 mm 1 mps 746 mmHg 86%
    21:00 +26°C° 0.1 mm 1 mps 746 mmHg 88%
    22:00 +25°C° 0.1 mm 1 mps 747 mmHg 90%
    23:00 +25°C° 0 mm 1 mps 746 mmHg 91%

    28 November, Tuesday

    Time Temperature Precipitation Wind Pressure Humidity
    00:00 +25°C° 0 mm 1 mps 746 mmHg 93%
    01:00 +22°C° 0 mm 0 mps 745 mmHg 94%
    02:00 +22°C° 0 mm 0 mps 745 mmHg 94%
    03:00 +24°C° 0 mm 1 mps 745 mmHg 95%
    04:00 +24°C° 0 mm 1 mps 744 mmHg 95%
    05:00 +22°C° 0 mm 0 mps 745 mmHg 94%
    06:00 +23°C° 0 mm 0 mps 746 mmHg 93%
    07:00 +23°C° 0 mm 0 mps 746 mmHg 91%
    08:00 +25°C° 0 mm 0 mps 746 mmHg 85%
    09:00 +26°C° 0 mm 0 mps 747 mmHg 78%
    10:00 +28°C° 0 mm 0 mps 747 mmHg 71%
    11:00 +29°C° 0 mm 0 mps 746 mmHg 67%
    12:00 +30°C° 0 mm 0 mps 745 mmHg 64%
    13:00 +33°C° 0 mm 1 mps 744 mmHg 60%
    14:00 +32°C° 0 mm 1 mps 743 mmHg 60%
    15:00 +32°C° 0 mm 1 mps 743 mmHg 61%
    16:00 +32°C° 0 mm 1 mps 742 mmHg 61%
    17:00 +31°C° 0 mm 1 mps 743 mmHg 66%
    18:00 +27°C° 0 mm 0 mps 744 mmHg 71%
    19:00 +25°C° 0 mm 0 mps 744 mmHg 77%
    20:00 +25°C° 0 mm 0 mps 745 mmHg 79%
    21:00 +25°C° 0 mm 0 mps 745 mmHg 82%
    22:00 +26°C° 0 mm 1 mps 746 mmHg 84%
    23:00 +26°C° 0 mm 1 mps 745 mmHg 86%

    29 November, Wednesday

    Time Temperature Precipitation Wind Pressure Humidity
    00:00 +25°C° 0 mm 1 mps 745 mmHg 89%
    01:00 +25°C° 0 mm 1 mps 745 mmHg 91%
    02:00 +25°C° 0.1 mm 1 mps 745 mmHg 93%
    03:00 +25°C° 0.1 mm 1 mps 744 mmHg 94%
    04:00 +25°C° 0.1 mm 1 mps 744 mmHg 95%
    05:00 +25°C° 0.1 mm 1 mps 745 mmHg 94%
    06:00 +25°C° 0.1 mm 1 mps 746 mmHg 93%
    07:00 +24°C° 0.1 mm 0 mps 746 mmHg 91%
    08:00 +27°C° 0 mm 1 mps 746 mmHg 85%
    09:00 +29°C° 0 mm 1 mps 746 mmHg 78%
    10:00 +30°C° 0 mm 1 mps 746 mmHg 71%
    11:00 +31°C° 0.2 mm 1 mps 745 mmHg 67%
    12:00 +32°C° 0.2 mm 1 mps 745 mmHg 64%
    13:00 +34°C° 0.2 mm 1 mps 744 mmHg 60%
    14:00 +33°C° 0.8 mm 1 mps 743 mmHg 63%
    15:00 +32°C° 0.8 mm 1 mps 743 mmHg 67%
    16:00 +32°C° 0.8 mm 1 mps 743 mmHg 70%
    17:00 +30°C° 1.1 mm 1 mps 744 mmHg 77%
    18:00 +28°C° 1.1 mm 1 mps 744 mmHg 83%
    19:00 +27°C° 1.1 mm 1 mps 745 mmHg 89%
    20:00 +26°C° 0.1 mm 1 mps 745 mmHg 90%
    21:00 +26°C° 0.1 mm 1 mps 746 mmHg 91%
    22:00 +26°C° 0.1 mm 1 mps 746 mmHg 92%
    23:00 +26°C° 0 mm 1 mps 746 mmHg 93%

    30 November, Thursday

    Time Temperature Precipitation Wind Pressure Humidity
    00:00 +25°C° 0 mm 1 mps 745 mmHg 95%
    01:00 +25°C° 0 mm 1 mps 745 mmHg 96%
    02:00 +25°C° 0 mm 1 mps 745 mmHg 97%
    03:00 +25°C° 0 mm 1 mps 745 mmHg 97%
    04:00 +25°C° 0 mm 1 mps 745 mmHg 98%
    05:00 +23°C° 0 mm 0 mps 746 mmHg 97%
    06:00 +23°C° 0 mm 0 mps 746 mmHg 95%
    07:00 +24°C° 0 mm 0 mps 747 mmHg 94%
    08:00 +25°C° 0 mm 0 mps 747 mmHg 90%
    09:00 +26°C° 0 mm 0 mps 747 mmHg 85%
    10:00 +28°C° 0 mm 1 mps 747 mmHg 81%
    11:00 +29°C° 0 mm 1 mps 746 mmHg 77%
    12:00 +30°C° 0 mm 1 mps 745 mmHg 72%
    13:00 +31°C° 0 mm 1 mps 744 mmHg 68%
    14:00 +32°C° 0.1 mm 1 mps 744 mmHg 66%
    15:00 +32°C° 0.1 mm 1 mps 743 mmHg 64%
    16:00 +32°C° 0.1 mm 1 mps 743 mmHg 62%
    17:00 +31°C° 0.3 mm 1 mps 744 mmHg 69%
    18:00 +29°C° 0.3 mm 1 mps 744 mmHg 76%
    19:00 +27°C° 0.3 mm 1 mps 745 mmHg 83%
    20:00 +27°C° 1.9 mm 1 mps 745 mmHg 86%
    21:00 +26°C° 1.9 mm 1 mps 746 mmHg 89%
    22:00 +26°C° 1.9 mm 1 mps 746 mmHg 93%
    23:00 +26°C° 1 mm 1 mps 746 mmHg 94%
    Show more